FW5866 Weather Reports


Display with metric or nautical units.
time (UTC)temp
F
wind
direction
speed
MPH
gust
MPH
rain 1hr
in
rain 24hr
in
rain mn
in
humidity
%
barometer
mb
20260831030050 82 0 0.0 1.0 0.00 0.00 0.00 82 1017.4
20260831024547 82 0 0.0 2.0 0.00 0.00 0.00 81 1017.4
20260831023103 83 0 0.0 5.0 0.00 0.00 0.00 80 1017.2
20260831021551 83 115 0.0 4.0 0.00 0.00 0.00 80 1016.8
20260831020054 83 0 0.0 2.0 0.00 0.00 0.00 79 1016.7
20260831014547 84 0 0.0 1.0 0.00 0.00 0.00 79 1016.5
20260831013108 84 0 0.0 1.0 0.00 0.00 0.00 78 1016.1
20260831011552 84 102 0.0 2.0 0.00 0.00 0.00 77 1016.0
20260831010058 85 0 0.0 3.0 0.00 0.00 0.00 76 1015.7
20260831004555 85 0 0.0 2.0 0.00 0.00 0.00 75 1015.9
20260831003104 86 0 0.0 4.0 0.00 0.00 0.00 75 1015.8
20260831001600 87 336 0.0 2.0 0.00 0.00 0.00 75 1015.9
20260831000054 87 101 0.0 3.0 0.00 0.00 0.00 75 1015.8
20260830234554 88 108 1.0 5.0 0.00 0.00 0.00 75 1015.4
20260830233103 89 0 1.0 5.0 0.00 0.00 0.00 73 1015.4
20260830231558 90 0 0.0 5.0 0.00 0.00 0.00 70 1015.5
20260830230052 92 0 0.0 4.0 0.00 0.00 0.00 65 1015.5
20260830224600 93 46 1.0 6.0 0.00 0.00 0.00 63 1015.5
20260830223110 93 59 1.0 5.0 0.00 0.00 0.00 63 1015.3
20260830221553 93 0 0.0 3.0 0.00 0.00 0.00 63 1015.3
20260830214615 94 0 0.0 3.0 0.00 0.00 0.00 63 1015.4
20260830213049 94 0 0.0 3.0 0.00 0.00 0.00 62 1015.5
20260830211611 94 0 0.0 5.0 0.00 0.00 0.00 64 1015.6
20260830210117 93 53 0.0 4.0 0.00 0.00 0.00 64 1015.6
20260830204600 93 38 0.0 4.0 0.00 0.00 0.00 64 1015.7
20260830203053 94 0 1.0 8.0 0.00 0.00 0.00 63 1015.9
20260830201605 94 82 1.0 4.0 0.00 0.00 0.00 64 1016.3
20260830200104 94 0 0.0 5.0 0.00 0.00 0.00 65 1016.4
20260830194556 93 114 0.0 4.0 0.00 0.00 0.00 66 1016.5
20260830193102 93 296 0.0 5.0 0.00 0.00 0.00 65 1016.7
20260830191559 93 0 0.0 5.0 0.00 0.00 0.00 68 1017.0
20260830190126 93 62 1.0 4.0 0.00 0.00 0.00 67 1017.2
20260830184608 92 0 1.0 5.0 0.00 0.00 0.00 70 1017.4
20260830183059 91 71 0.0 5.0 0.00 0.00 0.00 71 1017.4
20260830181559 92 73 0.0 4.0 0.00 0.00 0.00 70 1017.7
20260830174603 91 335 0.0 4.0 0.00 0.00 0.00 71 1018.1
20260830173055 91 38 0.0 5.0 0.00 0.00 0.00 74 1018.3
20260830171559 90 0 0.0 4.0 0.00 0.00 0.00 77 1018.6
20260830170053 90 55 0.0 4.0 0.00 0.00 0.00 78 1018.6
20260830164604 89 0 0.0 6.0 0.00 0.00 0.00 80 1018.8
20260830163051 88 86 1.0 4.0 0.00 0.00 0.00 80 1018.9
20260830161605 88 96 1.0 4.0 0.00 0.00 0.00 81 1019.1
20260830154557 86 0 1.0 4.0 0.00 0.00 0.00 83 1018.9
20260830153056 86 346 0.0 4.0 0.00 0.00 0.00 84 1018.9
20260830151601 85 325 0.0 5.0 0.00 0.00 0.00 86 1018.8
20260830150053 85 312 1.0 4.0 0.00 0.00 0.00 86 1018.6
20260830144556 84 311 1.0 8.0 0.00 0.00 0.00 88 1018.7
20260830143108 83 0 0.0 5.0 0.00 0.00 0.00 89 1018.9
20260830141603 82 302 1.0 4.0 0.00 0.00 0.00 90 1018.9
20260830140057 81 313 0.0 3.0 0.00 0.00 0.00 90 1018.8
20260830134600 80 0 0.0 2.0 0.00 0.00 0.00 91 1018.7
20260830133051 79 0 0.0 3.0 0.00 0.00 0.00 91 1018.7
20260830131548 78 0 0.0 0.0 0.00 0.00 0.00 92 1018.6
20260830130056 77 0 0.0 0.0 0.00 0.00 0.00 92 1018.5
20260830124550 76 0 0.0 0.0 0.00 0.00 0.00 92 1018.6
20260830123101 75 0 0.0 0.0 0.00 0.00 0.00 91 1018.4
20260830121558 74 0 0.0 0.0 0.00 0.00 0.00 90 1018.2
20260830114551 73 0 0.0 0.0 0.00 0.00 0.00 89 1017.9
20260830113052 73 0 0.0 0.0 0.00 0.00 0.00 88 1017.9
20260830111600 74 0 0.0 0.0 0.00 0.00 0.00 88 1017.9
20260830110056 74 0 0.0 0.0 0.00 0.00 0.00 88 1017.4
20260830104604 74 0 0.0 0.0 0.00 0.00 0.00 90 1017.5
20260830103059 74 0 0.0 0.0 0.00 0.00 0.00 88 1017.6
20260830101553 74 0 0.0 0.0 0.00 0.00 0.00 88 1017.4
20260830100059 74 0 0.0 0.0 0.00 0.00 0.00 88 1017.2
20260830094551 75 0 0.0 0.0 0.00 0.00 0.00 88 1017.4
20260830093047 75 0 0.0 0.0 0.00 0.00 0.00 88 1017.2
20260830091558 75 0 0.0 1.0 0.00 0.00 0.00 88 1017.2
20260830090055 75 0 0.0 0.0 0.00 0.00 0.00 87 1017.0
20260830084559 76 0 0.0 0.0 0.00 0.00 0.00 87 1016.9
20260830083104 76 0 0.0 0.0 0.00 0.00 0.00 86 1017.0
20260830081549 76 0 0.0 1.0 0.00 0.00 0.00 87 1017.0
20260830074559 77 234 0.0 3.0 0.00 0.00 0.00 86 1017.0
20260830073107 77 0 0.0 1.0 0.00 0.00 0.00 86 1017.1
20260830071558 77 0 0.0 0.0 0.00 0.00 0.00 85 1017.2
20260830070058 78 0 0.0 0.0 0.00 0.00 0.00 86 1017.4
20260830064601 78 0 0.0 2.0 0.00 0.00 0.00 86 1017.6
20260830063109 78 0 0.0 1.0 0.00 0.00 0.00 85 1017.7
20260830061557 78 0 0.0 0.0 0.00 0.00 0.00 84 1017.8
20260830060058 78 0 0.0 0.0 0.00 0.00 0.00 85 1017.9
20260830054601 78 0 0.0 0.0 0.00 0.00 0.00 83 1017.8
20260830053101 78 0 0.0 0.0 0.00 0.00 0.00 83 1017.9
20260830051552 78 0 0.0 0.0 0.00 0.00 0.00 83 1018.0
20260830050106 78 0 0.0 0.0 0.00 0.00 0.00 83 1018.0
20260830044603 78 0 0.0 0.0 0.00 0.00 0.00 82 1018.1
20260830043059 79 0 0.0 0.0 0.00 0.00 0.00 81 1018.0
20260830041604 79 0 0.0 0.0 0.00 0.00 0.00 81 1017.9
20260830040051 79 0 0.0 0.0 0.00 0.00 0.00 80 1017.9
20260830034614 80 0 0.0 1.0 0.00 0.00 0.00 81 1017.6
20260830033112 80 0 0.0 1.0 0.00 0.00 0.00 80 1017.6
20260830031556 80 0 0.0 0.0 0.00 0.00 0.00 79 1017.5